Terminal Aerodrome Forecast
Issued by NWS Raleigh/Durham, NC

Current Version | Previous Version | Text Only | Print | Product List | Glossary On
Versions: 1 2 3 4 5 6 7 8 9 10 11 12 13 14 15 16 17 18 19 20 21 22 23 24 25 26 27 28 29 30 31 32 33 34 35 36 37 38 39 40 41 42 43 44 45 46 47 48 49 50
000 FTUS42 KRAH 241954 AAB TAFFAY TAF AMD KFAY 241954Z 2420/2518 23011KT P6SM VCSH SCT045 BKN150 TEMPO 2420/2424 VRB15G25KT 3SM SHRA BR BKN015 FM250900 VRB05KT P6SM BKN035 TEMPO 2509/2512 3SM BR BKN005=

USA.gov is the U.S. government's official web portal to all federal, state and local government web resources and services.